This demonstration page uses our WeatherBlox Daily Observations layout. Learn more.

Left ArrowRight Arrow

38.89511, -77.03637

Hourly Observations for February 19, 2017

Temp ( °F °C ) Dew Point ( °F °C ) Humidity (%) Winds ( mph kmh ) Pressure ( in mb ) Visibility ( mi km ) Precip ( " mm )
12:52 am 00:52 Cloudy 55 12.8 37 2.8 51 51 S 5 7 29.79 1009 10 16 0.00 0.00
1:52 am 01:52 Cloudy 56 13.3 38 3.3 51 51 S 6 9 29.80 1009 10 16 0.00 0.03
2:52 am 02:52 Cloudy with Light Rain 56 13.3 42 5.6 60 60 Calm 29.79 1009 10 16 0.00 0.03
3:52 am 03:52 Cloudy with Light Rain 50 10 46 7.8 86 86 WSW 6 9 29.80 1009 10 16 0.01 0.25
4:52 am 04:52 Cloudy 53 11.7 45 7.2 74 74 Calm 29.83 1010 10 16 0.00 0.03
5:52 am 05:52 Cloudy 59 15 47 8.3 64 64 NW 7 11 29.84 1011 10 16 0.00 0.00
6:52 am 06:52 Cloudy 56 13.3 45 7.2 67 67 N 5 7 29.86 1011 10 16 0.00 0.00
7:52 am 07:52 Cloudy 60 15.6 46 7.8 60 60 NW 10 17 29.88 1012 10 16 0.00 0.00
8:52 am 08:52 Mostly Cloudy 61 16.1 45 7.2 56 56 NNW 13 20 29.90 1013 10 16 0.00 0.00
9:52 am 09:52 Cloudy 61 16.1 45 7.2 56 56 NNW 12 19 29.92 1013 10 16 0.00 0.00
10:52 am 10:52 Mostly Cloudy 65 18.3 45 7.2 49 49 NW 10 17 29.93 1013 10 16 0.00 0.00
11:52 am 11:52 Partly Cloudy 68 20 45 7.2 44 44 NNW 14 22 29.92 1013 10 16 0.00 0.00
12:52 pm 12:52 Mostly Sunny 68 20 44 6.7 42 42 N 7 11 29.91 1013 10 16 0.00 0.00
1:52 pm 13:52 Mostly Sunny 70 21.1 44 6.7 39 39 WSW 15 24 29.90 1013 10 16 0.00 0.00
2:06 pm 14:06 Mostly Sunny 70 21 43 6 38 38 WNW 10 17 29.91 1013 10 16 0.00 0.00
2:52 pm 14:52 Mostly Sunny 71 21.7 43 6.1 36 36 WNW 14 22 29.91 1013 10 16 0.00 0.00
3:52 pm 15:52 Mostly Sunny 71 21.7 42 5.6 35 35 NW 15 24 29.93 1013 10 16 0.00 0.00
4:52 pm 16:52 Mostly Sunny 70 21.1 39 3.9 32 32 W 17 28 29.93 1014 10 16 0.00 0.00
5:52 pm 17:52 Mostly Clear 67 19.4 38 3.3 35 35 NW 16 26 29.95 1014 10 16 0.00 0.00
6:52 pm 18:52 Clear 64 17.8 40 4.4 41 41 WNW 8 13 29.97 1015 10 16 0.00 0.00
7:52 pm 19:52 Clear 63 17.2 40 4.4 43 43 WNW 9 15 29.99 1016 10 16 0.00 0.00
8:52 pm 20:52 Partly Cloudy 61 16.1 41 5 48 48 NW 9 15 30.01 1016 10 16 0.00 0.00
9:52 pm 21:52 Partly Cloudy 59 15 42 5.6 54 54 WNW 12 19 30.04 1017 10 16 0.00 0.00
10:52 pm 22:52 Partly Cloudy 58 14.4 42 5.6 56 56 WNW 8 13 30.05 1018 10 16 0.00 0.00
11:52 pm 23:52 Mostly Cloudy 55 12.8 42 5.6 62 62 VRB 3 6 30.05 1018 10 16 0.00 0.00

Powered by AerisWeather